Flag for Portugal Weather past 2 weeks in Portimão, Portugal

Now
63 °F

Clear.


Feels Like: 63 °F
Forecast: 60 / 79 °F
Wind: 7 mph from West

Location: Faro / Aeroporto

Current Time: Aug 22, 2014 at 7:13:25 AM

Latest Report: Aug 22, 2014 at 6:30 AM


Visibility: 10 mi

Pressure: 30.01 "Hg

Humidity: 77%

Dew point: 55 °F

Location of PortimãoLocation

Historic Weather in Portimão — Graph

°F

Portimão temperature yesterday

Maximum temperature yesterday: 79 °F (at 3:30 PM)
Minimum temperature yesterday: 64 °F (at 6:00 AM)
Average temperature yesterday: 72 °F

Past Weeks' High & Low Weather Summary

 TemperatureHumidityPressure
High93 °F (Aug 7, 7:00 PM)94% (Aug 10, 3:00 AM)30.07 "Hg (Aug 10, 3:00 AM)
Low61 °F (Aug 19, 6:00 AM)12% (Aug 13, 5:30 PM)29.83 "Hg (Aug 8, 6:30 PM)
Average74 °F61%29.96 "Hg
* Reported Aug 7 6:00 AM — Aug 22 6:00 AM, Portimão, Weather by CustomWeather, © 2014

Note: Actual official high and low records may vary slightly from our data, if they occured in-between our weather recording intervals... More about our weather records

Advertising

Portimão weather history for previous 24 hours

 ConditionsComfort  
Time TempWeatherWind HumidityBarometerVisibility
6:00 AM
Aug 22
63 °FClear.8 mph83%30.01 "Hg10 mi
5:30 AM63 °FClear.5 mph73%29.98 "Hg10 mi
5:00 AM64 °FClear.7 mph73%29.98 "Hg10 mi
4:30 AM64 °FClear.7 mph68%29.98 "Hg10 mi
4:00 AM66 °FClear.9 mph64%29.98 "Hg10 mi
3:30 AM66 °FClear.10 mph64%30.01 "Hg10 mi
3:00 AM66 °FClear.10 mph73%30.01 "Hg10 mi
2:30 AM66 °FClear.12 mph73%30.01 "Hg10 mi
2:00 AM66 °FClear.12 mph78%30.01 "Hg10 mi
1:30 AM68 °FClear.10 mph73%30.01 "Hg10 mi
1:00 AM68 °FClear.13 mph73%30.01 "Hg10 mi
12:30 AM68 °FClear.12 mph73%30.01 "Hg10 mi
12:00 AM70 °FClear.13 mph69%30.01 "Hg10 mi
11:30 PM
Aug 21
70 °FClear.12 mph69%30.01 "Hg10 mi
11:00 PM70 °FClear.15 mph69%30.01 "Hg10 mi
10:30 PM72 °FClear.9 mph65%30.01 "Hg10 mi
10:00 PM72 °FClear.14 mph65%29.98 "Hg10 mi
9:30 PM73 °FClear.13 mph61%29.98 "Hg10 mi
9:00 PM75 °FSunny.18 mph57%29.98 "Hg10 mi
8:30 PM77 °FSunny.13 mph51%29.95 "Hg10 mi
8:00 PM79 °FSunny.14 mph45%29.95 "Hg10 mi
7:30 PM77 °FSunny.13 mph57%29.95 "Hg10 mi
7:00 PM73 °FSunny.17 mph69%29.95 "Hg10 mi
6:30 PM73 °FSunny.18 mph69%29.95 "Hg10 mi
6:00 PM73 °FSunny.17 mph69%29.95 "Hg10 mi
5:30 PM73 °FSunny.18 mph69%29.95 "Hg10 mi
5:00 PM75 °FSunny.17 mph65%29.95 "Hg10 mi
4:30 PM75 °FSunny.17 mph65%29.98 "Hg10 mi
4:00 PM75 °FSunny.17 mph61%29.98 "Hg10 mi
3:30 PM79 °FSunny.16 mph54%29.98 "Hg10 mi
3:00 PM77 °FSunny.17 mph54%30.01 "Hg10 mi
2:30 PM77 °FSunny.15 mph57%30.01 "Hg10 mi
2:00 PM75 °FSunny.13 mph61%30.01 "Hg10 mi
1:30 PM73 °FSunny.12 mph61%30.01 "Hg10 mi
1:00 PM73 °FSunny.10 mph61%30.01 "Hg10 mi
12:30 PM75 °FSunny.10 mph54%30.01 "Hg10 mi
12:00 PM73 °FSunny.9 mph61%30.04 "Hg10 mi
11:30 AM75 °FSunny.9 mph57%30.04 "Hg10 mi
11:00 AM77 °FSunny.8 mph39%30.01 "Hg10 mi
10:30 AM75 °FSunny.8 mph41%30.01 "Hg10 mi
10:00 AM75 °FSunny.7 mph47%30.01 "Hg10 mi
9:30 AM75 °FPassing clouds.3 mph41%30.01 "HgN/A
9:00 AM73 °FPassing clouds.5 mph38%30.01 "HgN/A
8:30 AM73 °FPassing clouds.6 mph38%30.01 "HgN/A
8:00 AM68 °FSunny.5 mph53%30.01 "Hg10 mi
7:30 AM64 °FClear.1 mph46%30.01 "Hg10 mi
7:00 AM68 °FClear.1 mph35%29.98 "Hg10 mi
Weather by CustomWeather, © 2014

See weather overviewHow to use our weather pages